RH
36 36 36 35 37 36 39 42 47 48 52 50 46 44 43 36 32 40 46 48 51 41 44 48 51 58 82 89 92 91 90 92 92 91 89 91 90 87 87 86 82 80 77
41 39 37 36 36 41 45 48 52 56 57 57 56 53 47 43 34 32 41 47 49 49 46 45 47 63 74 87 88 89 88 89 93 90 88 88 90 92 91 86 87 84 77
44 41 41 38 40 47 48 50 55 58 62 63 64 62 54 52 46 36 39 43 47 50 52 54 54 59 71 76 80 81 87 87 81 81 82 83 86 88 91 94 92 89 87
48 44 44 41 46 50 50 51 56 58 63 67 66 65 61 55 50 47 48 50 50 51 52 54 57 59 61 76 82 83 82 83 79 76 76 70 76 80 81 91 98 99 96
50 49 48 45 50 52 50 52 57 62 64 69 68 69 65 60 56 55 53 53 53 53 54 55 59 61 60 56 69 72 69 71 75 82 80 80 77 76 82 87 92 91 91
56 52 52 47 51 52 51 54 61 61 66 73 70 67 60 61 63 62 61 61 60 61 62 64 66 68 63 62 71 84 85 84 84 82 81 82 82 81 80 82 85 89 94
58 55 55 48 52 52 52 58 62 63 65 73 77 69 66 64 63 62 63 62 64 64 64 63 63 65 67 69 67 65 64 62 77 82 82 83 83 82 81 82 84 86 87
61 59 60 55 53 53 52 57 62 63 66 67 80 89 93 73 60 62 62 63 63 63 63 63 62 63 63 63 65 66 65 63 68 79 79 80 82 84 86 86 86 87 90
64 66 66 58 54 54 53 59 62 64 71 67 75 85 93 94 86 64 63 64 62 63 62 65 63 61 62 61 62 65 68 68 65 79 82 84 85 85 84 83 82 82 83
60 66 66 60 54 53 55 60 62 64 68 72 65 69 73 81 92 88 60 63 62 59 58 56 55 56 61 59 63 65 70 71 73 87 86 83 82 80 80 79 78 74 77
58 63 66 62 53 51 55 59 62 62 67 74 73 74 73 71 79 80 87 78 63 59 57 56 55 54 55 57 63 66 70 73 73 84 86 84 83 81 79 76 77 75 84
60 65 65 63 54 50 52 56 60 60 66 71 77 78 74 76 82 81 89 86 82 66 52 53 52 56 58 60 67 70 71 71 78 82 86 82 81 81 82 82 78 79 86
63 63 65 62 60 52 50 50 55 59 60 68 72 75 78 74 70 71 74 83 87 69 63 51 55 60 69 68 71 74 70 68 68 68 72 74 75 79 89 84 93 83 88
66 65 66 65 62 56 52 51 52 55 58 62 61 63 68 70 71 68 70 77 88 83 69 61 69 62 56 51 48 47 55 54 46 54 69 73 78 85 83 86 95 92 91
64 65 65 64 61 58 54 51 50 51 54 55 56 58 60 60 64 62 58 71 75 90 90 61 54 57 51 44 47 43 43 44 56 61 67 72 69 75 80 89 90 94 97
64 63 63 63 61 58 57 54 51 50 50 51 52 53 54 55 57 59 59 67 71 77 88 67 62 59 57 53 48 40 48 55 63 63 62 70 73 72 73 78 80 79 84
56 63 65 63 61 59 57 56 54 51 50 50 49 49 50 52 53 55 57 58 61 65 87 74 69 64 61 54 43 43 54 58 63 63 64 62 73 76 76 75 75 77 76
43 52 59 64 64 62 61 59 58 56 55 54 53 53 52 52 53 54 54 53 54 57 66 77 64 59 54 48 49 50 57 66 66 66 68 71 77 77 83 77 80 72 72
35 39 51 56 58 60 60 60 61 60 59 59 58 58 58 57 56 56 56 55 54 55 56 60 65 61 57 54 52 57 61 64 65 68 71 71 68 73 64 81 77 79 80
33 36 39 42 43 49 52 54 57 60 60 59 59 64 66 65 64 62 62 61 60 59 59 60 60 62 63 62 63 67 66 66 66 64 63 60 66 72 81 90 88 85 86
34 39 42 39 40 40 42 46 52 50 37 35 41 52 62 68 70 70 68 66 66 66 66 69 73 73 76 74 73 66 70 66 70 67 63 57 68 60 53 46 52 55 65
31 36 35 34 35 33 33 39 45 42 28 25 25 28 42 59 65 69 71 71 72 74 76 83 84 84 81 78 77 74 73 81 91 69 70 64 66 57 50 49 51 58 73
32 32 34 34 32 31 32 30 33 40 36 28 26 28 40 47 53 58 62 66 71 76 80 89 94 94 93 86 86 88 85 83 86 78 78 81 75 72 51 53 62 77 83
36 35 35 35 35 27 29 31 33 39 38 31 31 28 33 34 36 48 53 56 58 64 66 71 83 84 88 83 86 87 87 92 93 88 86 88 80 73 58 56 56 59 59
36 41 43 43 42 38 36 36 38 39 39 33 32 30 31 32 31 41 55 58 54 48 47 53 56 75 84 86 88 88 90 99 90 87 87 87 84 76 72 64 52 53 62
45 47 46 45 45 42 34 36 38 41 45 41 35 34 35 38 41 45 55 56 67 56 49 47 46 45 51 74 83 84 80 91 83 82 77 89 84 81 75 56 63 83 87
Wind_Speed
13 13 13 13 14 14 16 20 18 17 18 17 15 17 19 17 14 15 17 12 5 7 7 7 9 11 12 11 10 11 10 10 11 13 16 19 23 24 24 23 22 22 20
13 14 14 13 14 14 17 16 18 18 19 16 16 16 16 15 14 13 13 12 10 5 7 8 9 10 9 9 11 10 13 13 12 12 13 15 16 20 23 25 25 24 22
13 14 14 13 12 14 17 15 16 17 19 16 16 16 14 14 11 9 10 9 8 8 5 6 8 8 9 10 11 11 10 10 11 12 12 11 13 14 17 21 25 25 26
12 13 14 13 12 14 15 15 15 18 19 17 19 16 13 13 11 8 8 5 3 3 6 6 7 7 6 9 10 10 10 10 11 12 12 12 11 11 12 14 18 23 25
12 12 13 12 11 13 14 14 15 17 19 21 16 17 16 11 9 7 8 7 5 6 6 8 6 5 7 8 8 8 9 9 9 9 12 12 12 12 12 11 11 13 18
13 11 12 10 11 12 13 13 14 16 16 20 18 12 12 4 4 6 3 3 2 3 2 2 2 2 2 3 1 2 4 5 6 8 8 10 10 10 11 11 12 12 11
12 11 12 10 10 11 12 11 13 15 16 21 12 11 7 1 1 1 3 3 4 4 3 5 6 3 2 2 2 1 2 2 3 3 4 5 6 6 7 8 8 10 12
10 10 12 10 9 10 9 10 11 12 10 16 8 4 3 3 10 2 5 6 4 3 2 4 4 4 3 4 3 4 6 7 5 6 6 6 6 6 7 7 8 8 9
10 12 11 10 9 9 8 7 8 9 10 12 8 5 3 2 5 1 1 1 1 6 6 3 4 5 5 6 7 6 6 7 8 7 6 7 7 8 9 9 10 10 10
11 11 11 9 9 8 7 7 8 5 5 5 6 4 5 4 1 3 3 4 8 7 12 7 7 6 5 6 6 6 6 8 7 6 6 7 8 9 10 10 11 12 12
10 10 10 9 9 8 7 7 6 6 5 4 2 3 2 5 3 2 3 7 16 14 15 13 9 7 5 7 7 6 7 6 8 8 9 9 10 11 11 11 12 12 13
8 8 9 9 8 8 8 7 7 6 6 6 4 5 2 1 1 1 1 3 6 11 24 9 8 4 3 4 5 4 4 8 11 12 11 12 13 13 13 13 13 14 14
9 7 8 9 10 9 9 9 9 8 6 6 7 7 6 8 8 8 6 3 2 7 5 7 11 4 6 4 1 1 5 10 13 14 14 15 15 15 14 15 15 15 14
9 8 9 12 11 10 10 9 10 9 8 8 9 9 9 9 7 6 5 2 2 2 4 4 6 12 11 10 9 10 12 15 19 16 13 14 15 14 14 15 16 16 15
8 8 10 11 10 10 10 10 11 10 9 9 10 10 11 10 9 10 9 7 4 1 2 3 3 3 11 18 15 15 17 19 17 15 15 15 15 14 15 14 16 16 16
7 8 8 9 9 9 9 10 11 10 10 10 11 12 12 11 11 11 10 9 9 9 3 7 7 19 22 19 19 17 15 15 13 19 20 17 14 16 16 16 17 16 16
7 7 8 8 9 9 8 9 10 10 11 12 12 12 14 12 13 13 13 13 12 13 7 13 20 22 22 22 20 16 14 16 16 17 15 16 15 17 18 18 18 16 17
8 8 8 8 9 8 8 9 10 10 11 12 13 13 14 14 14 14 14 15 15 15 17 14 20 22 22 21 21 21 17 15 12 14 15 11 13 18 18 19 16 17 18
9 8 8 8 9 9 10 10 10 11 12 13 14 14 15 15 15 15 15 16 16 16 17 20 16 17 22 21 21 18 17 17 17 14 13 17 19 16 16 16 18 19 18
9 9 8 8 8 8 9 9 10 11 12 13 14 15 15 15 17 17 16 17 16 17 17 18 22 22 21 20 17 19 21 17 16 17 21 19 13 11 12 12 13 16 17
10 10 10 10 9 9 9 9 9 12 14 14 13 14 14 15 15 15 17 18 17 19 19 18 18 19 18 18 14 17 20 21 21 21 20 14 9 15 20 21 22 23 22
11 10 11 11 12 12 11 11 13 14 13 14 16 15 14 14 14 14 14 16 17 18 21 19 17 16 18 19 17 15 17 14 4 9 11 18 27 27 25 25 19 19 16
11 12 12 12 14 14 13 12 13 14 16 16 16 17 17 16 15 15 15 15 16 18 20 21 22 23 21 22 19 18 18 19 17 24 24 26 24 28 28 20 14 12 14
14 14 14 15 15 17 15 14 14 15 18 19 18 17 17 19 18 17 17 18 19 19 20 20 24 29 28 27 25 24 22 20 20 23 17 14 21 27 25 22 19 20 21
16 17 18 19 18 20 18 17 15 16 17 19 18 17 18 20 20 18 18 21 22 24 22 20 20 20 21 22 21 20 20 16 14 16 16 19 12 15 21 25 19 14 13
19 20 21 20 19 21 19 19 17 17 20 21 21 21 19 18 18 18 21 23 25 26 24 24 24 23 22 22 21 21 23 18 15 12 6 10 15 9 6 6 7 5 6
Wind_Direction
342 338 342 337 335 334 332 330 332 335 326 326 323 319 312 308 307 297 289 301 313 280 272 267 264 269 253 258 259 264 261 263 262 259 258 254 250 248 249 248 245 243 240
340 339 340 336 337 338 335 337 335 334 332 330 327 315 309 308 301 300 290 287 290 298 282 287 287 278 266 257 254 255 250 259 263 263 264 261 257 251 249 250 250 247 243
335 336 337 334 338 338 335 339 337 336 335 337 334 321 313 320 322 298 293 290 281 271 270 275 283 284 259 255 253 252 246 252 255 262 262 266 262 260 257 254 252 251 248
323 324 331 334 339 335 339 340 339 339 338 338 330 322 319 319 308 304 297 312 295 265 274 263 267 280 282 261 251 248 249 257 261 265 265 260 262 262 261 260 256 251 250
313 314 326 331 339 334 337 338 341 344 339 339 338 322 310 294 308 294 286 293 301 288 290 287 274 285 303 275 258 258 260 262 254 251 258 263 263 262 261 259 259 260 257
307 310 322 327 335 330 334 339 347 343 344 346 329 322 321 247 287 294 297 347 333 330 358 339 295 285 18 54 130 168 208 234 250 260 267 267 269 268 266 266 266 264 266
300 307 313 322 328 330 334 344 348 351 357 358 347 349 22 57 14 73 91 102 81 71 67 55 50 51 97 37 27 23 338 313 327 329 316 305 297 293 291 285 283 281 276
292 304 303 312 322 321 330 344 351 350 357 7 344 321 3 11 0 138 105 123 93 46 15 352 338 344 342 337 331 312 315 317 321 332 319 312 304 298 295 291 289 288 288
284 301 300 307 311 311 324 338 348 357 346 358 19 10 354 346 331 57 194 74 76 46 19 312 320 321 304 316 312 310 314 315 322 343 328 319 312 304 297 292 287 284 284
300 287 298 308 301 306 315 323 325 343 353 356 14 357 336 341 350 335 12 48 29 15 1 1 348 317 292 298 287 300 312 319 330 342 335 328 321 309 300 294 285 281 281
303 275 292 310 301 303 307 309 314 323 328 335 317 350 338 329 23 291 298 336 334 326 329 317 320 318 307 297 276 301 310 325 335 334 322 315 308 304 303 297 289 286 292
329 274 289 307 309 305 301 305 306 305 305 304 299 274 277 286 319 62 296 305 315 327 321 335 309 332 305 285 259 285 313 330 326 323 312 310 307 301 294 292 286 288 288
324 323 285 284 304 295 294 299 296 298 305 297 295 291 291 266 280 279 278 271 292 317 328 45 14 48 71 86 105 311 319 311 314 318 310 306 303 298 294 291 286 282 280
321 320 304 302 303 298 299 302 298 297 301 296 291 288 288 286 285 284 290 195 330 302 299 326 92 103 62 24 357 329 314 312 312 312 309 306 304 306 296 287 289 281 277
318 309 302 305 303 300 300 299 296 298 300 296 292 290 287 288 281 282 280 259 187 264 288 295 253 261 335 328 323 323 317 314 308 309 307 301 304 303 302 294 288 281 276
310 301 295 295 295 294 295 291 289 294 294 292 292 291 289 285 283 277 276 260 244 231 243 241 261 292 307 309 311 309 305 307 302 304 298 291 294 295 293 295 295 281 274
312 302 296 292 289 290 289 285 285 287 284 286 282 284 284 284 281 278 274 269 262 254 247 274 283 295 302 308 312 309 304 298 294 304 306 299 281 291 292 287 284 279 274
307 303 296 291 294 295 292 287 288 287 284 284 285 283 283 287 282 279 277 272 271 267 268 274 288 295 300 309 311 309 307 309 294 301 300 289 285 288 294 280 283 276 270
304 303 298 298 299 299 299 295 294 292 290 288 288 287 287 284 279 278 274 273 273 271 267 274 282 287 295 306 311 309 307 303 302 298 297 297 293 288 290 285 277 279 273
295 296 296 297 294 292 293 294 292 288 289 290 289 287 286 284 283 284 281 277 275 273 271 268 277 286 290 299 302 301 304 305 302 302 308 313 305 297 294 280 276 281 277
297 302 303 305 303 300 302 297 287 290 294 295 291 288 286 285 284 283 279 278 277 276 275 274 276 280 281 288 283 299 295 302 298 299 297 316 311 307 305 298 282 279 272
291 291 292 295 296 296 295 289 291 293 296 297 300 299 292 285 281 279 276 277 277 275 277 274 270 267 274 277 286 284 296 304 310 289 285 295 304 304 308 310 289 281 275
276 276 280 287 289 290 289 289 289 288 294 294 295 298 298 294 291 286 280 274 268 266 267 270 270 269 275 285 290 285 282 281 274 284 291 286 294 296 307 304 290 271 271
273 274 279 283 282 283 286 288 284 281 284 287 291 292 289 291 292 289 286 283 279 275 270 267 263 274 278 286 285 285 285 281 280 283 278 274 286 288 296 292 287 278 275
268 272 279 283 282 285 287 288 287 282 282 284 287 289 287 287 289 291 281 279 283 283 284 283 282 280 280 281 281 280 270 273 289 287 275 262 276 287 292 294 289 276 256
272 280 279 277 281 283 292 295 293 287 284 286 289 289 289 288 290 287 276 273 270 280 290 291 287 281 274 269 268 262 266 262 272 293 277 237 262 271 299 278 286 267 242